Time,TemperatureF,DewpointF,PressureIn,WindDirection,WindDirectionDegrees,WindSpeedMPH,WindSpeedGustMPH,Humidity,HourlyPrecipIn,Conditions,Clouds,dailyrainin,SoftwareType,DateUTC
2013-04-04 00:00:00,35.6,12.2,30.66,NNE,27,16.1,-999.9,38,-99.99,,,-99.99,,2013-04-04 04:00:00,
2013-04-04 00:02:00,35.6,14.0,30.67,North,349,6.9,-999.9,41,-99.99,,,-99.99,,2013-04-04 04:02:00,
2013-04-04 00:08:00,35.6,14.0,30.67,North,349,6.9,-999.9,41,-99.99,,,-99.99,,2013-04-04 04:08:00,
2013-04-04 00:14:00,35.6,14.0,30.67,NE,41,6.9,-999.9,41,-99.99,,,-99.99,,2013-04-04 04:14:00,
2013-04-04 00:24:00,35.6,14.0,30.67,North,11,13.8,-999.9,41,-99.99,,,-99.99,,2013-04-04 04:24:00,
2013-04-04 00:32:00,35.6,14.0,30.66,North,5,9.2,-999.9,41,-99.99,,,-99.99,,2013-04-04 04:32:00,
2013-04-04 00:36:00,35.6,14.0,30.66,North,5,9.2,-999.9,41,-99.99,,,-99.99,,2013-04-04 04:36:00,
2013-04-04 00:42:00,35.6,14.0,30.65,NNE,19,6.9,-999.9,41,-99.99,,,-99.99,,2013-04-04 04:42:00,
2013-04-04 00:48:00,35.6,14.0,30.65,NNE,19,6.9,-999.9,41,-99.99,,,-99.99,,2013-04-04 04:48:00,
2013-04-04 00:54:00,35.6,14.0,30.65,NNE,14,9.2,-999.9,41,-99.99,,,-99.99,,2013-04-04 04:54:00,
2013-04-04 01:00:00,35.6,14.0,30.65,NNE,14,9.2,-999.9,41,-99.99,,,-99.99,,2013-04-04 05:00:00,
2013-04-04 01:06:00,35.6,14.0,30.64,NNE,19,10.4,-999.9,41,-99.99,,,-99.99,,2013-04-04 05:06:00,
2013-04-04 01:52:00,35.6,15.8,30.63,NNE,23,11.5,-999.9,44,-99.99,,,-99.99,,2013-04-04 05:52:00,
2013-04-04 01:58:00,35.6,15.8,30.63,NNE,23,11.5,-999.9,44,-99.99,,,-99.99,,2013-04-04 05:58:00,
2013-04-04 02:04:00,35.6,15.8,30.63,NNW,335,15.0,-999.9,44,-99.99,,,-99.99,,2013-04-04 06:04:00,
2013-04-04 02:10:00,35.6,15.8,30.63,NNW,335,15.0,-999.9,44,-99.99,,,-99.99,,2013-04-04 06:10:00,
2013-04-04 02:16:00,35.6,15.8,30.63,North,351,11.5,-999.9,44,-99.99,,,-99.99,,2013-04-04 06:16:00,
2013-04-04 02:24:00,33.8,14.0,30.63,NNW,336,8.1,-999.9,44,-99.99,,,-99.99,,2013-04-04 06:24:00,
2013-04-04 02:30:00,33.8,14.0,30.63,NNW,336,8.1,-999.9,44,-99.99,,,-99.99,,2013-04-04 06:30:00,
2013-04-04 02:36:00,33.8,14.0,30.64,NNE,17,3.5,-999.9,44,-99.99,,,-99.99,,2013-04-04 06:36:00,
2013-04-04 02:42:00,33.8,14.0,30.64,North,354,6.9,-999.9,44,-99.99,,,-99.99,,2013-04-04 06:42:00,
2013-04-04 02:48:00,33.8,14.0,30.64,North,354,6.9,-999.9,44,-99.99,,,-99.99,,2013-04-04 06:48:00,
2013-04-04 02:54:00,33.8,14.0,30.65,NNW,341,2.3,-999.9,44,-99.99,,,-99.99,,2013-04-04 06:54:00,
2013-04-04 03:00:00,33.8,14.0,30.66,NNE,25,5.8,-999.9,44,-99.99,,,-99.99,,2013-04-04 07:00:00,
2013-04-04 03:06:00,33.8,14.0,30.66,NNE,25,5.8,-999.9,44,-99.99,,,-99.99,,2013-04-04 07:06:00,
2013-04-04 03:12:00,33.8,14.0,30.66,ENE,65,0.0,-999.9,44,-99.99,,,-99.99,,2013-04-04 07:12:00,
2013-04-04 03:18:00,33.8,14.0,30.66,ENE,65,0.0,-999.9,44,-99.99,,,-99.99,,2013-04-04 07:18:00,
2013-04-04 03:24:00,33.8,15.8,30.67,North,0,0.0,-999.9,48,-99.99,,,-99.99,,2013-04-04 07:24:00,
2013-04-04 03:30:00,33.8,15.8,30.67,North,0,0.0,-999.9,48,-99.99,,,-99.99,,2013-04-04 07:30:00,
2013-04-04 03:36:00,33.8,15.8,30.67,South,180,0.0,-999.9,48,-99.99,,,-99.99,,2013-04-04 07:36:00,
2013-04-04 03:44:00,33.8,15.8,30.68,North,0,0.0,-999.9,48,-99.99,,,-99.99,,2013-04-04 07:44:00,
2013-04-04 03:50:00,33.8,15.8,30.68,North,0,0.0,-999.9,48,-99.99,,,-99.99,,2013-04-04 07:50:00,
2013-04-04 03:56:00,32.0,14.0,30.68,NNW,339,5.8,-999.9,48,-99.99,,,-99.99,,2013-04-04 07:56:00,
2013-04-04 04:04:00,32.0,14.0,30.68,North,0,0.0,-999.9,48,-99.99,,,-99.99,,2013-04-04 08:04:00,
2013-04-04 04:12:00,32.0,15.8,30.68,SSW,198,1.2,-999.9,51,-99.99,,,-99.99,,2013-04-04 08:12:00,
2013-04-04 04:18:00,32.0,15.8,30.68,SSW,198,1.2,-999.9,51,-99.99,,,-99.99,,2013-04-04 08:18:00,
2013-04-04 04:24:00,32.0,14.0,30.68,SW,234,1.2,-999.9,48,-99.99,,,-99.99,,2013-04-04 08:24:00,
2013-04-04 04:30:00,32.0,14.0,30.68,SW,234,1.2,-999.9,48,-99.99,,,-99.99,,2013-04-04 08:30:00,
2013-04-04 04:36:00,32.0,15.8,30.69,North,0,0.0,-999.9,51,-99.99,,,-99.99,,2013-04-04 08:36:00,
2013-04-04 04:44:00,32.0,15.8,30.69,North,0,0.0,-999.9,51,-99.99,,,-99.99,,2013-04-04 08:44:00,
2013-04-04 04:50:00,32.0,15.8,30.69,North,0,0.0,-999.9,51,-99.99,,,-99.99,,2013-04-04 08:50:00,
2013-04-04 04:55:00,32.0,15.8,30.69,North,0,0.0,-999.9,51,-99.99,,,-99.99,,2013-04-04 08:55:00,
2013-04-04 05:02:00,32.0,17.6,30.69,North,0,0.0,-999.9,55,-99.99,,,-99.99,,2013-04-04 09:02:00,
2013-04-04 05:08:00,32.0,17.6,30.69,North,0,0.0,-999.9,55,-99.99,,,-99.99,,2013-04-04 09:08:00,
2013-04-04 05:14:00,32.0,17.6,30.70,North,0,0.0,-999.9,55,-99.99,,,-99.99,,2013-04-04 09:14:00,
2013-04-04 05:20:00,32.0,17.6,30.70,North,0,0.0,-999.9,55,-99.99,,,-99.99,,2013-04-04 09:20:00,
2013-04-04 05:26:00,32.0,17.6,30.70,North,0,0.0,-999.9,55,-99.99,,,-99.99,,2013-04-04 09:26:00,
2013-04-04 05:34:00,30.2,15.8,30.70,North,0,0.0,-999.9,55,-99.99,,,-99.99,,2013-04-04 09:34:00,
2013-04-04 05:40:00,30.2,15.8,30.70,North,0,0.0,-999.9,55,-99.99,,,-99.99,,2013-04-04 09:40:00,
2013-04-04 05:46:00,30.2,17.6,30.71,North,0,0.0,-999.9,60,-99.99,,,-99.99,,2013-04-04 09:46:00,
2013-04-04 05:54:00,30.2,17.6,30.71,North,0,0.0,-999.9,60,-99.99,,,-99.99,,2013-04-04 09:54:00,
2013-04-04 06:00:00,30.2,15.8,30.72,North,0,0.0,-999.9,55,-99.99,,,-99.99,,2013-04-04 10:00:00,
2013-04-04 06:06:00,30.2,15.8,30.72,North,0,0.0,-999.9,55,-99.99,,,-99.99,,2013-04-04 10:06:00,
2013-04-04 06:14:00,30.2,15.8,30.73,North,0,0.0,-999.9,55,-99.99,,,-99.99,,2013-04-04 10:14:00,
2013-04-04 06:20:00,30.2,15.8,30.73,North,0,0.0,-999.9,55,-99.99,,,-99.99,,2013-04-04 10:20:00,
2013-04-04 06:26:00,30.2,17.6,30.73,North,0,0.0,-999.9,60,-99.99,,,-99.99,,2013-04-04 10:26:00,
2013-04-04 06:34:00,30.2,17.6,30.73,North,0,0.0,-999.9,60,-99.99,,,-99.99,,2013-04-04 10:34:00,
2013-04-04 06:40:00,30.2,17.6,30.73,North,0,0.0,-999.9,60,-99.99,,,-99.99,,2013-04-04 10:40:00,
2013-04-04 06:46:00,30.2,17.6,30.73,North,0,0.0,-999.9,60,-99.99,,,-99.99,,2013-04-04 10:46:00,
2013-04-04 06:54:00,30.2,17.6,30.74,North,0,0.0,-999.9,60,-99.99,,,-99.99,,2013-04-04 10:54:00,
2013-04-04 07:00:00,30.2,17.6,30.74,North,0,0.0,-999.9,60,-99.99,,,-99.99,,2013-04-04 11:00:00,
2013-04-04 07:07:00,30.2,17.6,30.74,North,0,0.0,-999.9,60,-99.99,,,-99.99,,2013-04-04 11:07:00,
2013-04-04 07:14:00,32.0,17.6,30.74,NNE,22,2.3,-999.9,55,-99.99,,,-99.99,,2013-04-04 11:14:00,
2013-04-04 07:20:00,32.0,17.6,30.74,NNE,19,5.8,-999.9,55,-99.99,,,-99.99,,2013-04-04 11:20:00,
2013-04-04 07:26:00,32.0,17.6,30.74,NNE,19,5.8,-999.9,55,-99.99,,,-99.99,,2013-04-04 11:26:00,
2013-04-04 07:32:00,32.0,15.8,30.75,NE,41,1.2,-999.9,51,-99.99,,,-99.99,,2013-04-04 11:32:00,
2013-04-04 07:38:00,32.0,15.8,30.75,NE,41,1.2,-999.9,51,-99.99,,,-99.99,,2013-04-04 11:38:00,
2013-04-04 07:44:00,33.8,17.6,30.75,NE,50,2.3,-999.9,52,-99.99,,,-99.99,,2013-04-04 11:44:00,
2013-04-04 07:50:00,33.8,17.6,30.75,NE,50,2.3,-999.9,52,-99.99,,,-99.99,,2013-04-04 11:50:00,
2013-04-04 07:56:00,33.8,15.8,30.75,NW,326,3.5,-999.9,48,-99.99,,,-99.99,,2013-04-04 11:56:00,
2013-04-04 08:02:00,33.8,15.8,30.74,NE,36,3.5,-999.9,48,-99.99,,,-99.99,,2013-04-04 12:02:00,
2013-04-04 08:08:00,33.8,15.8,30.74,NE,36,3.5,-999.9,48,-99.99,,,-99.99,,2013-04-04 12:08:00,
2013-04-04 08:14:00,35.6,17.6,30.74,North,0,0.0,-999.9,48,-99.99,,,-99.99,,2013-04-04 12:14:00,
2013-04-04 08:22:00,35.6,15.8,30.74,ENE,66,2.3,-999.9,44,-99.99,,,-99.99,,2013-04-04 12:22:00,
2013-04-04 08:28:00,35.6,15.8,30.74,ENE,66,2.3,-999.9,44,-99.99,,,-99.99,,2013-04-04 12:28:00,
2013-04-04 08:34:00,35.6,15.8,30.73,North,0,0.0,-999.9,44,-99.99,,,-99.99,,2013-04-04 12:34:00,
2013-04-04 08:40:00,35.6,15.8,30.73,North,0,0.0,-999.9,44,-99.99,,,-99.99,,2013-04-04 12:40:00,
2013-04-04 08:46:00,37.4,17.6,30.73,NW,321,2.3,-999.9,45,-99.99,,,-99.99,,2013-04-04 12:46:00,
2013-04-04 08:54:00,37.4,17.6,30.73,ENE,78,3.5,-999.9,45,-99.99,,,-99.99,,2013-04-04 12:54:00,
2013-04-04 09:04:00,37.4,17.6,30.72,ENE,62,3.5,-999.9,45,-99.99,,,-99.99,,2013-04-04 13:04:00,
2013-04-04 09:10:00,37.4,17.6,30.72,ENE,62,3.5,-999.9,45,-99.99,,,-99.99,,2013-04-04 13:10:00,
2013-04-04 09:16:00,37.4,17.6,30.72,NNE,31,6.9,-999.9,45,-99.99,,,-99.99,,2013-04-04 13:16:00,
2013-04-04 09:24:00,39.2,19.4,30.72,ENE,57,1.2,-999.9,45,-99.99,,,-99.99,,2013-04-04 13:24:00,
2013-04-04 09:32:00,39.2,17.6,30.72,ENE,70,3.5,-999.9,42,-99.99,,,-99.99,,2013-04-04 13:32:00,
2013-04-04 09:38:00,39.2,17.6,30.72,ENE,70,3.5,-999.9,42,-99.99,,,-99.99,,2013-04-04 13:38:00,
2013-04-04 09:44:00,39.2,17.6,30.71,NNW,346,5.8,-999.9,42,-99.99,,,-99.99,,2013-04-04 13:44:00,
2013-04-04 09:54:00,39.2,17.6,30.70,NNW,347,2.3,-999.9,42,-99.99,,,-99.99,,2013-04-04 13:54:00,
2013-04-04 10:00:00,39.2,17.6,30.70,NNW,347,2.3,-999.9,42,-99.99,,,-99.99,,2013-04-04 14:00:00,
2013-04-04 10:05:00,41.0,19.4,30.71,ENE,62,3.5,-999.9,42,-99.99,,,-99.99,,2013-04-04 14:05:00,
2013-04-04 10:12:00,41.0,17.6,30.71,East,84,1.2,-999.9,39,-99.99,,,-99.99,,2013-04-04 14:12:00,
2013-04-04 10:18:00,41.0,17.6,30.71,East,84,1.2,-999.9,39,-99.99,,,-99.99,,2013-04-04 14:18:00,
2013-04-04 10:24:00,42.8,19.4,30.70,SSE,150,5.8,-999.9,39,-99.99,,,-99.99,,2013-04-04 14:24:00,
2013-04-04 10:34:00,42.8,17.6,30.69,SSE,151,3.5,-999.9,36,-99.99,,,-99.99,,2013-04-04 14:34:00,
2013-04-04 10:40:00,42.8,17.6,30.69,SSE,151,3.5,-999.9,36,-99.99,,,-99.99,,2013-04-04 14:40:00,
2013-04-04 10:46:00,42.8,17.6,30.69,SE,141,1.2,-999.9,36,-99.99,,,-99.99,,2013-04-04 14:46:00,
2013-04-04 10:54:00,42.8,15.8,30.69,SSE,162,0.0,-999.9,34,-99.99,,,-99.99,,2013-04-04 14:54:00,
2013-04-04 11:04:00,44.6,17.6,30.68,South,182,5.8,-999.9,34,-99.99,,,-99.99,,2013-04-04 15:04:00,
2013-04-04 11:10:00,44.6,17.6,30.68,South,182,5.8,-999.9,34,-99.99,,,-99.99,,2013-04-04 15:10:00,
2013-04-04 11:16:00,42.8,15.8,30.68,SSE,159,5.8,-999.9,34,-99.99,,,-99.99,,2013-04-04 15:16:00,
2013-04-04 11:22:00,44.6,15.8,30.68,East,84,1.2,-999.9,31,-99.99,,,-99.99,,2013-04-04 15:22:00,
2013-04-04 11:28:00,44.6,15.8,30.68,East,84,1.2,-999.9,31,-99.99,,,-99.99,,2013-04-04 15:28:00,
2013-04-04 11:34:00,46.4,15.8,30.68,SSE,168,1.2,-999.9,29,-99.99,,,-99.99,,2013-04-04 15:34:00,
2013-04-04 11:40:00,46.4,15.8,30.68,SSE,168,1.2,-999.9,29,-99.99,,,-99.99,,2013-04-04 15:40:00,
2013-04-04 11:46:00,48.2,15.8,30.67,NNW,328,1.2,-999.9,27,-99.99,,,-99.99,,2013-04-04 15:46:00,
2013-04-04 11:52:00,48.2,15.8,30.66,SE,139,3.5,-999.9,27,-99.99,,,-99.99,,2013-04-04 15:52:00,
2013-04-04 11:58:00,48.2,15.8,30.66,SE,139,3.5,-999.9,27,-99.99,,,-99.99,,2013-04-04 15:58:00,
2013-04-04 12:04:00,48.2,15.8,30.65,NNW,327,3.5,-999.9,27,-99.99,,,-99.99,,2013-04-04 16:04:00,
2013-04-04 12:10:00,48.2,15.8,30.65,NNW,327,3.5,-999.9,27,-99.99,,,-99.99,,2013-04-04 16:10:00,
2013-04-04 12:16:00,50.0,15.8,30.63,East,97,3.5,-999.9,26,-99.99,,,-99.99,,2013-04-04 16:16:00,
2013-04-04 12:24:00,50.0,15.8,30.63,East,97,3.5,-999.9,26,-99.99,,,-99.99,,2013-04-04 16:24:00,
2013-04-04 12:30:00,50.0,15.8,30.63,East,97,3.5,-999.9,26,-99.99,,,-99.99,,2013-04-04 16:30:00,
2013-04-04 12:36:00,50.0,14.0,30.63,East,84,1.2,-999.9,24,-99.99,,,-99.99,,2013-04-04 16:36:00,
2013-04-04 12:44:00,50.0,17.6,30.63,SE,141,5.8,-999.9,28,-99.99,,,-99.99,,2013-04-04 16:44:00,
2013-04-04 12:50:00,50.0,17.6,30.63,SE,141,5.8,-999.9,28,-99.99,,,-99.99,,2013-04-04 16:50:00,
2013-04-04 12:56:00,50.0,17.6,30.62,SE,138,5.8,-999.9,28,-99.99,,,-99.99,,2013-04-04 16:56:00,
2013-04-04 13:04:00,50.0,17.6,30.61,SE,129,6.9,-999.9,28,-99.99,,,-99.99,,2013-04-04 17:04:00,
2013-04-04 13:10:00,50.0,17.6,30.61,SE,129,6.9,-999.9,28,-99.99,,,-99.99,,2013-04-04 17:10:00,
2013-04-04 13:16:00,51.8,17.6,30.61,SSE,151,9.2,-999.9,26,-99.99,,,-99.99,,2013-04-04 17:16:00,
2013-04-04 13:24:00,51.8,17.6,30.60,SSE,168,4.6,-999.9,26,-99.99,,,-99.99,,2013-04-04 17:24:00,
2013-04-04 13:30:00,51.8,17.6,30.60,SSE,168,4.6,-999.9,26,-99.99,,,-99.99,,2013-04-04 17:30:00,
2013-04-04 13:36:00,50.0,15.8,30.60,SSE,168,3.5,-999.9,26,-99.99,,,-99.99,,2013-04-04 17:36:00,
2013-04-04 13:42:00,51.8,17.6,30.59,SSE,161,5.8,-999.9,26,-99.99,,,-99.99,,2013-04-04 17:42:00,
2013-04-04 13:48:00,51.8,17.6,30.59,SSE,161,5.8,-999.9,26,-99.99,,,-99.99,,2013-04-04 17:48:00,
2013-04-04 13:54:00,51.8,15.8,30.58,SSE,153,10.4,-999.9,24,-99.99,,,-99.99,,2013-04-04 17:54:00,
2013-04-04 14:00:00,51.8,15.8,30.58,SSE,153,10.4,-999.9,24,-99.99,,,-99.99,,2013-04-04 18:00:00,
2013-04-04 14:06:00,53.6,17.6,30.58,SSW,206,6.9,-999.9,24,-99.99,,,-99.99,,2013-04-04 18:06:00,
2013-04-04 14:14:00,53.6,17.6,30.57,SSE,152,8.1,-999.9,24,-99.99,,,-99.99,,2013-04-04 18:14:00,
2013-04-04 14:20:00,53.6,17.6,30.57,SSE,152,8.1,-999.9,24,-99.99,,,-99.99,,2013-04-04 18:20:00,
2013-04-04 14:26:00,53.6,17.6,30.57,South,170,6.9,-999.9,24,-99.99,,,-99.99,,2013-04-04 18:26:00,
2013-04-04 14:32:00,53.6,17.6,30.56,SSE,151,4.6,-999.9,24,-99.99,,,-99.99,,2013-04-04 18:32:00,
2013-04-04 14:38:00,53.6,17.6,30.56,SSE,151,4.6,-999.9,24,-99.99,,,-99.99,,2013-04-04 18:38:00,
2013-04-04 14:44:00,55.4,19.4,30.55,South,173,8.1,-999.9,25,-99.99,,,-99.99,,2013-04-04 18:44:00,
2013-04-04 14:50:00,55.4,19.4,30.55,South,173,8.1,-999.9,25,-99.99,,,-99.99,,2013-04-04 18:50:00,
2013-04-04 14:56:00,53.6,19.4,30.55,SSE,149,4.6,-999.9,26,-99.99,,,-99.99,,2013-04-04 18:56:00,
2013-04-04 15:04:00,53.6,17.6,30.54,SSE,163,8.1,-999.9,24,-99.99,,,-99.99,,2013-04-04 19:04:00,
2013-04-04 15:10:00,53.6,17.6,30.54,SSE,163,8.1,-999.9,24,-99.99,,,-99.99,,2013-04-04 19:10:00,
2013-04-04 15:16:00,53.6,17.6,30.53,SSW,195,3.5,-999.9,24,-99.99,,,-99.99,,2013-04-04 19:16:00,
2013-04-04 15:22:00,55.4,19.4,30.53,SSE,165,8.1,-999.9,25,-99.99,,,-99.99,,2013-04-04 19:22:00,
2013-04-04 15:28:00,55.4,19.4,30.53,SSE,165,8.1,-999.9,25,-99.99,,,-99.99,,2013-04-04 19:28:00,
2013-04-04 15:34:00,57.2,19.4,30.52,SSW,210,5.8,-999.9,23,-99.99,,,-99.99,,2013-04-04 19:34:00,
2013-04-04 15:40:00,55.4,19.4,30.52,SE,138,9.2,-999.9,25,-99.99,,,-99.99,,2013-04-04 19:40:00,
2013-04-04 15:46:00,55.4,19.4,30.52,SE,138,9.2,-999.9,25,-99.99,,,-99.99,,2013-04-04 19:46:00,
2013-04-04 15:54:00,55.4,17.6,30.51,South,184,5.8,-999.9,23,-99.99,,,-99.99,,2013-04-04 19:54:00,
2013-04-04 16:00:00,55.4,17.6,30.50,South,187,8.1,-999.9,23,-99.99,,,-99.99,,2013-04-04 20:00:00,
2013-04-04 16:06:00,55.4,17.6,30.50,South,187,8.1,-999.9,23,-99.99,,,-99.99,,2013-04-04 20:06:00,
2013-04-04 16:14:00,55.4,17.6,30.50,South,187,8.1,-999.9,23,-99.99,,,-99.99,,2013-04-04 20:14:00,
2013-04-04 16:20:00,55.4,17.6,30.50,South,187,8.1,-999.9,23,-99.99,,,-99.99,,2013-04-04 20:20:00,
2013-04-04 16:26:00,55.4,17.6,30.50,South,181,8.1,-999.9,23,-99.99,,,-99.99,,2013-04-04 20:26:00,
2013-04-04 16:32:00,55.4,17.6,30.50,SSE,160,9.2,-999.9,23,-99.99,,,-99.99,,2013-04-04 20:32:00,
2013-04-04 16:38:00,55.4,17.6,30.50,SSE,160,9.2,-999.9,23,-99.99,,,-99.99,,2013-04-04 20:38:00,
2013-04-04 16:44:00,53.6,17.6,30.50,South,184,6.9,-999.9,24,-99.99,,,-99.99,,2013-04-04 20:44:00,
2013-04-04 16:50:00,53.6,17.6,30.50,South,184,6.9,-999.9,24,-99.99,,,-99.99,,2013-04-04 20:50:00,
2013-04-04 16:56:00,53.6,17.6,30.50,SSE,160,8.1,-999.9,24,-99.99,,,-99.99,,2013-04-04 20:56:00,
2013-04-04 17:04:00,53.6,17.6,30.49,South,183,10.4,-999.9,24,-99.99,,,-99.99,,2013-04-04 21:04:00,
2013-04-04 17:10:00,53.6,17.6,30.49,South,183,10.4,-999.9,24,-99.99,,,-99.99,,2013-04-04 21:10:00,
2013-04-04 17:16:00,53.6,17.6,30.50,South,176,10.4,-999.9,24,-99.99,,,-99.99,,2013-04-04 21:16:00,
2013-04-04 17:22:00,53.6,19.4,30.49,SSE,150,5.8,-999.9,26,-99.99,,,-99.99,,2013-04-04 21:22:00,
2013-04-04 17:28:00,53.6,19.4,30.49,SSE,150,5.8,-999.9,26,-99.99,,,-99.99,,2013-04-04 21:28:00,
2013-04-04 17:34:00,53.6,17.6,30.48,South,186,4.6,-999.9,24,-99.99,,,-99.99,,2013-04-04 21:34:00,
2013-04-04 17:40:00,53.6,17.6,30.48,South,186,4.6,-999.9,24,-99.99,,,-99.99,,2013-04-04 21:40:00,
2013-04-04 17:46:00,53.6,17.6,30.48,South,177,6.9,-999.9,24,-99.99,,,-99.99,,2013-04-04 21:46:00,
2013-04-04 17:54:00,53.6,17.6,30.48,South,177,6.9,-999.9,24,-99.99,,,-99.99,,2013-04-04 21:54:00,
2013-04-04 18:00:00,53.6,17.6,30.48,South,177,6.9,-999.9,24,-99.99,,,-99.99,,2013-04-04 22:00:00,
2013-04-04 18:06:00,53.6,19.4,30.48,South,179,8.1,-999.9,26,-99.99,,,-99.99,,2013-04-04 22:06:00,
2013-04-04 18:14:00,53.6,19.4,30.48,SSW,194,6.9,-999.9,26,-99.99,,,-99.99,,2013-04-04 22:14:00,
2013-04-04 18:20:00,53.6,19.4,30.48,SSW,194,6.9,-999.9,26,-99.99,,,-99.99,,2013-04-04 22:20:00,
2013-04-04 18:26:00,53.6,19.4,30.48,South,173,13.8,-999.9,26,-99.99,,,-99.99,,2013-04-04 22:26:00,
2013-04-04 18:34:00,53.6,19.4,30.48,South,182,6.9,-999.9,26,-99.99,,,-99.99,,2013-04-04 22:34:00,
2013-04-04 18:44:00,51.8,19.4,30.49,SSW,198,3.5,-999.9,28,-99.99,,,-99.99,,2013-04-04 22:44:00,
2013-04-04 18:50:00,50.0,26.6,30.50,SSE,166,8.1,-999.9,40,-99.99,,,-99.99,,2013-04-04 22:50:00,
2013-04-04 18:56:00,50.0,26.6,30.50,SSE,166,8.1,-999.9,40,-99.99,,,-99.99,,2013-04-04 22:56:00,
2013-04-04 19:04:00,50.0,28.4,30.50,SSW,195,4.6,-999.9,43,-99.99,,,-99.99,,2013-04-04 23:04:00,
2013-04-04 19:10:00,48.2,26.6,30.50,South,174,5.8,-999.9,43,-99.99,,,-99.99,,2013-04-04 23:10:00,
2013-04-04 19:16:00,48.2,26.6,30.50,South,174,5.8,-999.9,43,-99.99,,,-99.99,,2013-04-04 23:16:00,
2013-04-04 19:24:00,48.2,26.6,30.50,South,185,4.6,-999.9,43,-99.99,,,-99.99,,2013-04-04 23:24:00,
2013-04-04 19:34:00,48.2,26.6,30.50,South,177,6.9,-999.9,43,-99.99,,,-99.99,,2013-04-04 23:34:00,
2013-04-04 19:40:00,48.2,26.6,30.50,South,177,6.9,-999.9,43,-99.99,,,-99.99,,2013-04-04 23:40:00,
2013-04-04 19:46:00,48.2,28.4,30.50,South,181,0.0,-999.9,46,-99.99,,,-99.99,,2013-04-04 23:46:00,
2013-04-04 19:54:00,48.2,28.4,30.49,SSE,160,1.2,-999.9,46,-99.99,,,-99.99,,2013-04-04 23:54:00,
2013-04-04 20:04:00,48.2,28.4,30.49,North,0,0.0,-999.9,46,-99.99,,,-99.99,,2013-04-05 00:04:00,
2013-04-04 20:10:00,48.2,28.4,30.49,North,0,0.0,-999.9,46,-99.99,,,-99.99,,2013-04-05 00:10:00,
2013-04-04 20:16:00,48.2,21.2,30.48,South,171,3.5,-999.9,34,-99.99,,,-99.99,,2013-04-05 00:16:00,
2013-04-04 21:22:00,48.2,21.2,30.47,South,174,2.3,-999.9,34,-99.99,,,-99.99,,2013-04-05 01:22:00,
2013-04-04 21:28:00,48.2,21.2,30.47,South,174,2.3,-999.9,34,-99.99,,,-99.99,,2013-04-05 01:28:00,
2013-04-04 21:34:00,48.2,19.4,30.47,South,180,3.5,-999.9,32,-99.99,,,-99.99,,2013-04-05 01:34:00,
2013-04-04 21:40:00,48.2,19.4,30.47,South,180,3.5,-999.9,32,-99.99,,,-99.99,,2013-04-05 01:40:00,
2013-04-04 21:46:00,48.2,21.2,30.47,South,170,4.6,-999.9,34,-99.99,,,-99.99,,2013-04-05 01:46:00,
2013-04-04 21:52:00,48.2,21.2,30.47,South,175,3.5,-999.9,34,-99.99,,,-99.99,,2013-04-05 01:52:00,
2013-04-04 21:58:00,48.2,21.2,30.47,South,175,3.5,-999.9,34,-99.99,,,-99.99,,2013-04-05 01:58:00,
2013-04-04 22:04:00,48.2,19.4,30.47,South,181,5.8,-999.9,32,-99.99,,,-99.99,,2013-04-05 02:04:00,
2013-04-04 22:10:00,48.2,19.4,30.47,South,181,5.8,-999.9,32,-99.99,,,-99.99,,2013-04-05 02:10:00,
2013-04-04 22:16:00,46.4,17.6,30.46,South,187,5.8,-999.9,32,-99.99,,,-99.99,,2013-04-05 02:16:00,
2013-04-04 22:24:00,46.4,17.6,30.46,South,181,4.6,-999.9,32,-99.99,,,-99.99,,2013-04-05 02:24:00,
2013-04-04 22:30:00,46.4,17.6,30.46,South,188,4.6,-999.9,32,-99.99,,,-99.99,,2013-04-05 02:30:00,
2013-04-04 22:36:00,46.4,17.6,30.46,South,188,4.6,-999.9,32,-99.99,,,-99.99,,2013-04-05 02:36:00,
2013-04-04 22:44:00,46.4,19.4,30.47,SSE,150,2.3,-999.9,34,-99.99,,,-99.99,,2013-04-05 02:44:00,
2013-04-04 22:54:00,46.4,21.2,30.46,SSE,150,3.5,-999.9,37,-99.99,,,-99.99,,2013-04-05 02:54:00,
2013-04-04 23:00:00,46.4,21.2,30.46,SSE,150,3.5,-999.9,37,-99.99,,,-99.99,,2013-04-05 03:00:00,
2013-04-04 23:06:00,46.4,19.4,30.46,South,182,5.8,-999.9,34,-99.99,,,-99.99,,2013-04-05 03:06:00,
2013-04-04 23:14:00,46.4,19.4,30.46,South,182,5.8,-999.9,34,-99.99,,,-99.99,,2013-04-05 03:14:00,
2013-04-04 23:20:00,46.4,19.4,30.46,South,182,5.8,-999.9,34,-99.99,,,-99.99,,2013-04-05 03:20:00,
2013-04-04 23:26:00,46.4,19.4,30.46,South,178,3.5,-999.9,34,-99.99,,,-99.99,,2013-04-05 03:26:00,
2013-04-04 23:34:00,44.6,19.4,30.45,North,0,0.0,-999.9,37,-99.99,,,-99.99,,2013-04-05 03:34:00,
2013-04-04 23:40:00,44.6,19.4,30.45,North,0,0.0,-999.9,37,-99.99,,,-99.99,,2013-04-05 03:40:00,
2013-04-04 23:46:00,44.6,19.4,30.45,SSE,161,2.3,-999.9,37,-99.99,,,-99.99,,2013-04-05 03:46:00,
2013-04-04 23:54:00,44.6,19.4,30.44,SSE,161,1.2,-999.9,37,-99.99,,,-99.99,,2013-04-05 03:54:00,